Retour au catalogue

ARIANE 5 R/B

ActifHEO
NORAD 38742·ROCKET BODY·🇫🇷 France

Lancé Aug 2, 2012 depuis Guiana Space Centre

Loading…

Prochains Passages (prochaines 24 heures)

TLE

FraisSource: Space-Track

Époque: Sep 12, 2026, 18:08 UTC

1 38742U 12043C   26255.75558362  .00003884  00000-0  10558-2 0  9999
2 38742   5.8911 309.7968 7027227  59.2003 351.2789  2.60523934125195

Suivez ARIANE 5 R/B en temps réel avec AllMySat

Download on the App Store